Weather in Kanpur

India     26°26′39″N   80°19′15″E
temp.,
°C
wind,
m/s
gust,
m/s
humid.,
%
clouds,
%
prec.,
mm/h
press.,
hPa
HPBL,
m
13 may, thu
thu1323:30+25ne5662100 1.6 1003315
02:30+25ese6106780 0.0 1002514
05:30+24se51072100 0.0 1004497
08:30+28se4453100 0.0 1006799
11:30+33sse333588 0.0 10041739
14:30+35ssw322913 0.0 10022300
17:30+35s23260 0.0 10002011
20:30+32sse22330 0.0 100129
14 may, fri
fri1423:30+30ese36384 0.0 1002220
02:30+28ese36510 0.0 1001169
05:30+27e24543 0.0 1002113
08:30+32ese674112 0.0 1004790
11:30+35ese432955 0.0 10031637
14:30+39nne2420100 0.0 9993688
17:30+33ene553316 0.3 999216
20:30+32se233557 0.4 100198
15 may, sat
sat1523:30+31e223245 0.4 100128
02:30+31ene223111 0.0 100113
05:30+29se113420 0.0 100311
08:30+35e45234 0.0 1003686
11:30+40se32175 0.0 10022536
14:30+42n14133 0.0 9994306
17:30+42nnw441243 0.0 9984087
20:30+38nne3415100 0.0 100080
16 may, sun
sun1623:30+36ene3419100 0.0 100157
02:30+35se342195 0.0 100184
05:30+33e2224100 0.0 100221
08:30+39se561670 0.0 1003784
11:30+43se441399 0.0 10024146
14:30+45e121148 0.0 9994693
17:30+44e231162 0.0 9983652
20:30+39ne49155 0.0 1000180
17 may, mon
mon1723:30+36se22175 0.0 100119
02:30+35se342075 0.0 100067
05:30+34s3423100 0.0 100156
08:30+39wnw2321100 0.0 1003699
11:30+43nw231765 0.0 10013302
14:30+44n1215100 0.0 9984278
17:30+40nnw232096 0.2 998359
20:30+37sw7928100 0.1 1002709